Location: Unspecified
(0.0000°N, 0.0000°E)
Time: 01:29:30
(UTC+00:00)

Explorer 11/Cluster Stage 4 - Pass Details

Date: 23 November 2019
Orbit: 467 x 1259 km, 28.8° (Epoch: 11 December)

Event Time Altitude Azimuth Distance (km) Brightness Sun altitude
Rises 00:44:26 0° 313° (NW) 3,909 - -65.2°
Reaches altitude 10° 00:47:14 10° 319° (NW) 3,040 - -64.8°
Maximum altitude 00:54:38 47° 31° (NNE) 1,596 - -63.7°
Drops below altitude 10° 01:02:28 10° 102° (ESE) 3,224 - -62.5°
Exits shadow 01:04:52 - 106° (ESE) 3,960 10.5 -62.1°
Sets 01:05:30 0° 107° (ESE) 4,163 10.6 -62.0°
